Time,TemperatureF,DewpointF,PressureIn,WindDirection,WindDirectionDegrees,WindSpeedMPH,WindSpeedGustMPH,Humidity,HourlyPrecipIn,Conditions,Clouds,dailyrainin,SoftwareType,DateUTC
2013-01-29 00:03:00,41.9,35.6,30.21,SSW,206,0.0,0.0,77,0.08,,,0.00,WUHU216WMR968SP,2013-01-29 08:03:00,
2013-01-29 00:08:00,42.1,35.6,30.21,SSW,206,0.0,0.0,77,0.08,,,0.00,WUHU216WMR968SP,2013-01-29 08:08:00,
2013-01-29 00:13:00,42.1,35.6,30.21,SSW,206,0.0,0.0,77,0.12,,,0.04,WUHU216WMR968SP,2013-01-29 08:13:00,
2013-01-29 00:18:00,42.1,35.6,30.21,SSW,206,0.0,0.0,77,0.08,,,0.04,WUHU216WMR968SP,2013-01-29 08:18:00,
2013-01-29 00:23:00,42.1,35.6,30.21,SSW,206,0.0,0.0,77,0.08,,,0.04,WUHU216WMR968SP,2013-01-29 08:23:00,
2013-01-29 00:28:00,42.1,35.6,30.21,SSW,206,0.0,0.0,77,0.12,,,0.08,WUHU216WMR968SP,2013-01-29 08:28:00,
2013-01-29 00:33:00,41.9,35.6,30.21,SSW,206,0.0,0.0,77,0.12,,,0.08,WUHU216WMR968SP,2013-01-29 08:33:00,
2013-01-29 00:38:00,41.9,35.6,30.21,SSW,206,0.0,0.0,77,0.12,,,0.08,WUHU216WMR968SP,2013-01-29 08:38:00,
2013-01-29 00:43:00,41.9,35.6,30.21,SSW,206,0.0,0.0,77,0.12,,,0.08,WUHU216WMR968SP,2013-01-29 08:43:00,
2013-01-29 00:48:00,41.9,35.6,30.21,SSW,206,0.0,0.0,77,0.12,,,0.08,WUHU216WMR968SP,2013-01-29 08:48:00,
2013-01-29 00:53:00,41.9,35.6,30.21,SSW,206,0.0,0.0,77,0.08,,,0.08,WUHU216WMR968SP,2013-01-29 08:53:00,
2013-01-29 00:58:00,41.9,35.6,30.21,SSW,206,0.0,0.0,77,0.08,,,0.08,WUHU216WMR968SP,2013-01-29 08:58:00,
2013-01-29 01:03:00,41.7,33.8,30.21,SSW,206,0.0,0.0,77,0.08,,,0.08,WUHU216WMR968SP,2013-01-29 09:03:00,
2013-01-29 01:08:00,41.7,33.8,30.21,SSW,206,0.0,0.0,77,0.08,,,0.08,WUHU216WMR968SP,2013-01-29 09:08:00,
2013-01-29 01:13:00,41.7,33.8,30.21,SSW,206,0.0,0.0,77,0.04,,,0.08,WUHU216WMR968SP,2013-01-29 09:13:00,
2013-01-29 01:18:00,41.7,33.8,30.21,SSW,206,0.0,0.0,77,0.04,,,0.08,WUHU216WMR968SP,2013-01-29 09:18:00,
2013-01-29 01:23:00,41.7,33.8,30.21,SSW,206,0.0,0.0,77,0.04,,,0.08,WUHU216WMR968SP,2013-01-29 09:23:00,
2013-01-29 01:28:00,41.7,33.8,30.21,SSW,206,0.0,0.0,77,0.04,,,0.12,WUHU216WMR968SP,2013-01-29 09:28:00,
2013-01-29 01:33:00,41.7,33.8,30.21,SSW,206,0.0,0.0,77,0.04,,,0.12,WUHU216WMR968SP,2013-01-29 09:33:00,
2013-01-29 01:38:00,41.7,33.8,30.21,SSW,206,0.0,0.0,77,0.04,,,0.12,WUHU216WMR968SP,2013-01-29 09:38:00,
2013-01-29 01:43:00,41.9,35.6,30.21,SSW,206,0.0,0.0,78,0.04,,,0.12,WUHU216WMR968SP,2013-01-29 09:43:00,
2013-01-29 01:48:00,41.9,35.6,30.21,SSW,206,0.0,0.0,78,0.04,,,0.12,WUHU216WMR968SP,2013-01-29 09:48:00,
2013-01-29 01:53:00,41.9,35.6,30.21,SSW,206,0.0,0.0,78,0.04,,,0.12,WUHU216WMR968SP,2013-01-29 09:53:00,
2013-01-29 02:35:00,42.1,35.6,30.24,SSW,206,0.0,0.0,78,0.00,,,0.12,WUHU216WMR968SP,2013-01-29 10:35:00,
2013-01-29 02:40:00,42.1,35.6,30.24,SSW,206,0.0,0.0,78,0.04,,,0.16,WUHU216WMR968SP,2013-01-29 10:40:00,
2013-01-29 02:45:00,42.1,35.6,30.24,SSW,206,0.0,0.0,78,0.04,,,0.16,WUHU216WMR968SP,2013-01-29 10:45:00,
2013-01-29 02:50:00,41.9,35.6,30.24,SSW,206,0.0,0.0,78,0.04,,,0.16,WUHU216WMR968SP,2013-01-29 10:50:00,
2013-01-29 02:55:00,42.1,35.6,30.24,SSW,206,0.0,0.0,78,0.00,,,0.16,WUHU216WMR968SP,2013-01-29 10:55:00,
2013-01-29 03:00:00,42.1,35.6,30.24,SSW,206,0.0,0.0,78,0.00,,,0.16,WUHU216WMR968SP,2013-01-29 11:00:00,
2013-01-29 03:05:00,42.1,35.6,30.24,SSW,206,0.0,0.0,78,0.00,,,0.16,WUHU216WMR968SP,2013-01-29 11:05:00,
2013-01-29 03:10:00,42.1,35.6,30.24,SSW,206,0.0,0.0,78,0.00,,,0.16,WUHU216WMR968SP,2013-01-29 11:10:00,
2013-01-29 03:15:00,42.1,35.6,30.24,SSW,206,0.0,0.0,78,0.00,,,0.16,WUHU216WMR968SP,2013-01-29 11:15:00,
2013-01-29 03:22:00,42.1,35.6,30.24,SSW,206,0.0,0.0,78,0.00,,,0.16,WUHU216WMR968SP,2013-01-29 11:22:00,
2013-01-29 03:27:00,41.9,35.6,30.24,SSW,206,0.0,0.0,78,0.00,,,0.16,WUHU216WMR968SP,2013-01-29 11:27:00,
2013-01-29 03:32:00,41.9,35.6,30.24,SSW,206,0.0,0.0,78,0.00,,,0.16,WUHU216WMR968SP,2013-01-29 11:32:00,
2013-01-29 03:37:00,41.7,35.6,30.24,SSW,206,0.0,0.0,79,0.00,,,0.16,WUHU216WMR968SP,2013-01-29 11:37:00,
2013-01-29 03:42:00,41.7,35.6,30.24,SSW,206,0.0,0.0,79,0.00,,,0.16,WUHU216WMR968SP,2013-01-29 11:42:00,
2013-01-29 03:47:00,41.5,35.6,30.24,SSW,206,0.0,0.0,79,0.00,,,0.16,WUHU216WMR968SP,2013-01-29 11:47:00,
2013-01-29 03:52:00,41.5,35.6,30.24,SSW,206,0.0,0.0,79,0.00,,,0.16,WUHU216WMR968SP,2013-01-29 11:52:00,
2013-01-29 03:57:00,41.5,35.6,30.24,SSW,206,0.0,0.0,79,0.00,,,0.16,WUHU216WMR968SP,2013-01-29 11:57:00,
2013-01-29 04:02:00,41.5,35.6,30.27,SSW,206,0.0,0.0,79,0.00,,,0.16,WUHU216WMR968SP,2013-01-29 12:02:00,
2013-01-29 04:07:00,41.5,35.6,30.27,SSW,206,0.0,0.0,79,0.00,,,0.16,WUHU216WMR968SP,2013-01-29 12:07:00,
2013-01-29 04:12:00,41.5,35.6,30.27,SSW,206,0.0,0.0,79,0.00,,,0.16,WUHU216WMR968SP,2013-01-29 12:12:00,
2013-01-29 04:17:00,41.5,35.6,30.27,SSW,206,0.0,0.0,79,0.00,,,0.16,WUHU216WMR968SP,2013-01-29 12:17:00,
2013-01-29 04:22:00,41.4,35.6,30.27,SSW,206,0.0,0.0,79,0.00,,,0.16,WUHU216WMR968SP,2013-01-29 12:22:00,
2013-01-29 04:27:00,41.4,35.6,30.27,SSW,206,0.0,0.0,79,0.00,,,0.16,WUHU216WMR968SP,2013-01-29 12:27:00,
2013-01-29 04:32:00,41.4,35.6,30.27,SSW,206,0.0,0.0,79,0.00,,,0.16,WUHU216WMR968SP,2013-01-29 12:32:00,
2013-01-29 04:37:00,41.4,35.6,30.27,SSW,206,0.0,0.0,79,0.00,,,0.16,WUHU216WMR968SP,2013-01-29 12:37:00,
2013-01-29 04:42:00,41.4,35.6,30.27,SSW,206,0.0,0.0,79,0.00,,,0.16,WUHU216WMR968SP,2013-01-29 12:42:00,
2013-01-29 04:47:00,41.4,35.6,30.27,SSW,206,0.0,0.0,79,0.00,,,0.16,WUHU216WMR968SP,2013-01-29 12:47:00,
2013-01-29 04:52:00,41.4,35.6,30.27,SSW,206,0.0,0.0,79,0.00,,,0.16,WUHU216WMR968SP,2013-01-29 12:52:00,
2013-01-29 04:57:00,41.4,35.6,30.27,SSW,206,0.0,0.0,79,0.00,,,0.16,WUHU216WMR968SP,2013-01-29 12:57:00,
2013-01-29 05:02:00,41.4,35.6,30.27,SSW,206,0.0,0.0,79,0.00,,,0.16,WUHU216WMR968SP,2013-01-29 13:02:00,
2013-01-29 05:07:00,41.5,35.6,30.27,SSW,206,0.0,0.0,79,0.03,,,0.19,WUHU216WMR968SP,2013-01-29 13:07:00,
2013-01-29 05:12:00,41.5,35.6,30.27,SSW,206,0.0,0.0,79,0.03,,,0.19,WUHU216WMR968SP,2013-01-29 13:12:00,
2013-01-29 05:17:00,41.5,35.6,30.27,SSW,206,0.0,0.0,79,0.03,,,0.19,WUHU216WMR968SP,2013-01-29 13:17:00,
2013-01-29 05:22:00,41.5,35.6,30.27,SSW,206,0.0,0.0,79,0.03,,,0.19,WUHU216WMR968SP,2013-01-29 13:22:00,
2013-01-29 05:27:00,41.5,35.6,30.27,SSW,206,0.0,0.0,79,0.03,,,0.19,WUHU216WMR968SP,2013-01-29 13:27:00,
2013-01-29 05:32:00,41.5,35.6,30.27,SSW,206,0.0,0.0,79,0.03,,,0.19,WUHU216WMR968SP,2013-01-29 13:32:00,
2013-01-29 05:37:00,41.5,35.6,30.27,SSW,206,0.0,0.0,79,0.03,,,0.19,WUHU216WMR968SP,2013-01-29 13:37:00,
2013-01-29 05:42:00,41.5,35.6,30.27,SSW,206,0.0,0.0,79,0.03,,,0.19,WUHU216WMR968SP,2013-01-29 13:42:00,
2013-01-29 05:47:00,41.5,35.6,30.27,SSW,207,0.0,0.0,79,0.03,,,0.19,WUHU216WMR968SP,2013-01-29 13:47:00,
2013-01-29 05:52:00,41.5,35.6,30.27,SSW,206,0.0,0.0,79,0.03,,,0.19,WUHU216WMR968SP,2013-01-29 13:52:00,
2013-01-29 05:57:00,41.5,35.6,30.27,WNW,287,0.0,4.0,79,0.03,,,0.19,WUHU216WMR968SP,2013-01-29 13:57:00,
2013-01-29 06:02:00,41.5,35.6,30.27,WNW,287,0.0,4.0,79,0.03,,,0.19,WUHU216WMR968SP,2013-01-29 14:02:00,
2013-01-29 06:07:00,41.5,35.6,30.27,WNW,286,0.0,0.0,79,0.00,,,0.19,WUHU216WMR968SP,2013-01-29 14:07:00,
2013-01-29 06:12:00,41.5,35.6,30.27,NW,313,3.1,4.0,79,0.00,,,0.19,WUHU216WMR968SP,2013-01-29 14:12:00,
2013-01-29 06:17:00,41.7,35.6,30.27,West,279,0.0,4.0,79,0.00,,,0.19,WUHU216WMR968SP,2013-01-29 14:17:00,
2013-01-29 06:22:00,41.7,35.6,30.27,West,279,0.0,3.1,79,0.00,,,0.19,WUHU216WMR968SP,2013-01-29 14:22:00,
2013-01-29 06:27:00,41.7,35.6,30.27,West,279,0.0,0.0,79,0.00,,,0.19,WUHU216WMR968SP,2013-01-29 14:27:00,
2013-01-29 06:32:00,41.7,35.6,30.30,West,279,0.0,0.0,79,0.00,,,0.19,WUHU216WMR968SP,2013-01-29 14:32:00,
2013-01-29 06:37:00,41.9,37.4,30.30,West,279,0.0,0.0,79,0.00,,,0.19,WUHU216WMR968SP,2013-01-29 14:37:00,
2013-01-29 06:42:00,41.9,37.4,30.30,West,279,0.0,0.0,79,0.00,,,0.19,WUHU216WMR968SP,2013-01-29 14:42:00,
2013-01-29 06:47:00,41.9,37.4,30.30,West,279,0.0,0.0,79,0.00,,,0.19,WUHU216WMR968SP,2013-01-29 14:47:00,
2013-01-29 06:52:00,41.9,37.4,30.30,West,279,0.0,0.0,79,0.00,,,0.19,WUHU216WMR968SP,2013-01-29 14:52:00,
2013-01-29 06:57:00,41.9,37.4,30.30,West,279,0.0,0.0,79,0.00,,,0.19,WUHU216WMR968SP,2013-01-29 14:57:00,
2013-01-29 07:02:00,41.9,37.4,30.30,West,279,0.0,0.0,79,0.04,,,0.23,WUHU216WMR968SP,2013-01-29 15:02:00,
2013-01-29 07:07:00,42.1,37.4,30.30,West,279,0.0,3.1,79,0.04,,,0.23,WUHU216WMR968SP,2013-01-29 15:07:00,
2013-01-29 07:12:00,42.1,37.4,30.30,West,279,0.0,3.1,79,0.04,,,0.23,WUHU216WMR968SP,2013-01-29 15:12:00,
2013-01-29 07:17:00,42.1,37.4,30.30,West,280,0.0,0.0,79,0.04,,,0.23,WUHU216WMR968SP,2013-01-29 15:17:00,
2013-01-29 07:22:00,42.1,37.4,30.30,West,280,0.0,0.0,79,0.04,,,0.23,WUHU216WMR968SP,2013-01-29 15:22:00,
2013-01-29 07:27:00,42.3,37.4,30.30,West,279,0.0,0.0,79,0.04,,,0.23,WUHU216WMR968SP,2013-01-29 15:27:00,
2013-01-29 07:32:00,42.1,37.4,30.32,West,280,0.0,0.0,79,0.08,,,0.27,WUHU216WMR968SP,2013-01-29 15:32:00,
2013-01-29 07:37:00,42.3,37.4,30.32,West,280,0.0,0.0,79,0.08,,,0.27,WUHU216WMR968SP,2013-01-29 15:37:00,
2013-01-29 07:42:00,42.3,37.4,30.32,West,279,0.0,0.0,79,0.08,,,0.27,WUHU216WMR968SP,2013-01-29 15:42:00,
2013-01-29 07:47:00,42.3,35.6,30.32,West,279,0.0,0.0,78,0.08,,,0.27,WUHU216WMR968SP,2013-01-29 15:47:00,
2013-01-29 07:52:00,42.1,35.6,30.32,West,279,0.0,0.0,78,0.12,,,0.31,WUHU216WMR968SP,2013-01-29 15:52:00,
2013-01-29 07:57:00,42.1,37.4,30.32,West,280,0.0,0.0,79,0.12,,,0.31,WUHU216WMR968SP,2013-01-29 15:57:00,
2013-01-29 08:02:00,42.1,35.6,30.32,West,279,0.0,0.0,78,0.08,,,0.31,WUHU216WMR968SP,2013-01-29 16:02:00,
2013-01-29 08:07:00,42.3,35.6,30.32,West,279,0.0,0.0,78,0.12,,,0.35,WUHU216WMR968SP,2013-01-29 16:07:00,
2013-01-29 08:12:00,42.3,35.6,30.32,West,280,0.0,0.0,78,0.12,,,0.35,WUHU216WMR968SP,2013-01-29 16:12:00,
2013-01-29 08:17:00,42.3,35.6,30.32,West,279,0.0,0.0,78,0.12,,,0.35,WUHU216WMR968SP,2013-01-29 16:17:00,
2013-01-29 08:22:00,42.3,35.6,30.32,West,279,0.0,0.0,78,0.16,,,0.39,WUHU216WMR968SP,2013-01-29 16:22:00,
2013-01-29 08:27:00,42.3,35.6,30.32,West,280,0.0,0.0,78,0.16,,,0.39,WUHU216WMR968SP,2013-01-29 16:27:00,
2013-01-29 08:32:00,42.3,35.6,30.32,West,280,0.0,0.0,78,0.12,,,0.39,WUHU216WMR968SP,2013-01-29 16:32:00,
2013-01-29 08:37:00,42.3,35.6,30.32,West,279,0.0,0.0,78,0.12,,,0.39,WUHU216WMR968SP,2013-01-29 16:37:00,
2013-01-29 08:42:00,42.3,35.6,30.32,West,279,0.0,0.0,78,0.16,,,0.43,WUHU216WMR968SP,2013-01-29 16:42:00,
2013-01-29 08:47:00,42.3,35.6,30.32,West,280,0.0,0.0,78,0.16,,,0.43,WUHU216WMR968SP,2013-01-29 16:47:00,
2013-01-29 08:52:00,42.4,35.6,30.32,West,280,0.0,0.0,78,0.12,,,0.43,WUHU216WMR968SP,2013-01-29 16:52:00,
2013-01-29 08:57:00,42.4,35.6,30.32,West,280,0.0,0.0,78,0.12,,,0.43,WUHU216WMR968SP,2013-01-29 16:57:00,
2013-01-29 09:02:00,42.4,35.6,30.32,West,279,0.0,0.0,78,0.16,,,0.47,WUHU216WMR968SP,2013-01-29 17:02:00,
2013-01-29 09:07:00,42.4,35.6,30.32,West,280,0.0,0.0,78,0.12,,,0.47,WUHU216WMR968SP,2013-01-29 17:07:00,
2013-01-29 09:12:00,42.4,35.6,30.32,West,280,0.0,0.0,78,0.12,,,0.47,WUHU216WMR968SP,2013-01-29 17:12:00,
2013-01-29 09:17:00,42.6,35.6,30.35,West,279,0.0,0.0,78,0.12,,,0.47,WUHU216WMR968SP,2013-01-29 17:17:00,
2013-01-29 09:22:00,42.6,35.6,30.35,West,279,0.0,0.0,78,0.08,,,0.47,WUHU216WMR968SP,2013-01-29 17:22:00,
2013-01-29 09:27:00,42.6,35.6,30.35,West,279,0.0,0.0,78,0.12,,,0.51,WUHU216WMR968SP,2013-01-29 17:27:00,
2013-01-29 09:32:00,42.6,35.6,30.35,West,280,0.0,0.0,78,0.12,,,0.51,WUHU216WMR968SP,2013-01-29 17:32:00,
2013-01-29 09:37:00,42.6,35.6,30.35,West,279,0.0,0.0,78,0.12,,,0.51,WUHU216WMR968SP,2013-01-29 17:37:00,
2013-01-29 09:42:00,42.6,35.6,30.35,West,280,0.0,0.0,78,0.08,,,0.51,WUHU216WMR968SP,2013-01-29 17:42:00,
2013-01-29 09:47:00,42.6,35.6,30.35,West,279,0.0,0.0,78,0.08,,,0.51,WUHU216WMR968SP,2013-01-29 17:47:00,
2013-01-29 09:52:00,42.8,35.6,30.35,West,279,0.0,0.0,78,0.08,,,0.51,WUHU216WMR968SP,2013-01-29 17:52:00,
2013-01-29 09:57:00,42.8,35.6,30.35,West,279,0.0,0.0,78,0.12,,,0.55,WUHU216WMR968SP,2013-01-29 17:57:00,
2013-01-29 10:02:00,42.8,35.6,30.35,West,280,0.0,0.0,78,0.08,,,0.55,WUHU216WMR968SP,2013-01-29 18:02:00,
2013-01-29 10:07:00,43.0,35.6,30.35,West,280,0.0,0.0,78,0.08,,,0.55,WUHU216WMR968SP,2013-01-29 18:07:00,
2013-01-29 10:12:00,43.0,35.6,30.35,West,279,0.0,0.0,78,0.08,,,0.55,WUHU216WMR968SP,2013-01-29 18:12:00,
2013-01-29 10:17:00,43.0,35.6,30.35,West,279,0.0,0.0,78,0.08,,,0.55,WUHU216WMR968SP,2013-01-29 18:17:00,
2013-01-29 10:22:00,43.0,35.6,30.35,West,279,0.0,0.0,78,0.08,,,0.55,WUHU216WMR968SP,2013-01-29 18:22:00,
2013-01-29 10:27:00,43.0,35.6,30.35,West,279,0.0,0.0,78,0.08,,,0.59,WUHU216WMR968SP,2013-01-29 18:27:00,
2013-01-29 10:32:00,43.0,35.6,30.38,West,280,0.0,0.0,78,0.08,,,0.59,WUHU216WMR968SP,2013-01-29 18:32:00,
2013-01-29 10:37:00,43.2,35.6,30.38,West,280,0.0,0.0,78,0.08,,,0.59,WUHU216WMR968SP,2013-01-29 18:37:00,
2013-01-29 10:42:00,43.2,35.6,30.38,West,279,0.0,0.0,78,0.08,,,0.59,WUHU216WMR968SP,2013-01-29 18:42:00,
2013-01-29 10:47:00,43.2,35.6,30.38,West,279,0.0,0.0,78,0.08,,,0.59,WUHU216WMR968SP,2013-01-29 18:47:00,
2013-01-29 10:52:00,43.3,35.6,30.38,West,279,0.0,0.0,78,0.04,,,0.59,WUHU216WMR968SP,2013-01-29 18:52:00,
2013-01-29 10:57:00,43.3,35.6,30.38,West,279,0.0,0.0,78,0.04,,,0.59,WUHU216WMR968SP,2013-01-29 18:57:00,
2013-01-29 11:02:00,43.5,35.6,30.38,West,279,0.0,0.0,78,0.08,,,0.63,WUHU216WMR968SP,2013-01-29 19:02:00,
2013-01-29 11:07:00,43.7,37.4,30.38,West,280,0.0,0.0,78,0.08,,,0.63,WUHU216WMR968SP,2013-01-29 19:07:00,
2013-01-29 11:12:00,43.9,37.4,30.38,West,280,0.0,0.0,78,0.08,,,0.63,WUHU216WMR968SP,2013-01-29 19:12:00,
2013-01-29 11:17:00,43.9,37.4,30.38,West,280,0.0,0.0,78,0.08,,,0.63,WUHU216WMR968SP,2013-01-29 19:17:00,
2013-01-29 11:22:00,44.1,37.4,30.38,West,280,0.0,0.0,78,0.08,,,0.63,WUHU216WMR968SP,2013-01-29 19:22:00,
2013-01-29 11:27:00,44.1,37.4,30.38,West,280,0.0,0.0,78,0.04,,,0.63,WUHU216WMR968SP,2013-01-29 19:27:00,
2013-01-29 11:32:00,44.1,37.4,30.38,West,280,0.0,2.7,78,0.04,,,0.63,WUHU216WMR968SP,2013-01-29 19:32:00,
2013-01-29 11:37:00,44.1,37.4,30.38,West,279,0.0,2.7,78,0.04,,,0.63,WUHU216WMR968SP,2013-01-29 19:37:00,
2013-01-29 11:42:00,44.1,37.4,30.38,West,279,0.0,0.0,78,0.04,,,0.63,WUHU216WMR968SP,2013-01-29 19:42:00,
2013-01-29 11:47:00,44.2,37.4,30.38,West,279,0.0,0.0,78,0.04,,,0.63,WUHU216WMR968SP,2013-01-29 19:47:00,
2013-01-29 11:52:00,44.6,37.4,30.38,West,279,0.0,0.0,78,0.04,,,0.63,WUHU216WMR968SP,2013-01-29 19:52:00,
2013-01-29 11:57:00,44.6,37.4,30.38,West,279,0.0,0.0,78,0.04,,,0.63,WUHU216WMR968SP,2013-01-29 19:57:00,
2013-01-29 11:58:00,44.6,37.4,30.38,West,279,0.0,0.0,78,0.04,,,0.63,WUHU216WMR968SP,2013-01-29 19:58:00,
2013-01-29 12:03:00,44.6,37.4,30.38,West,279,0.0,0.0,78,0.00,,,0.63,WUHU216WMR968SP,2013-01-29 20:03:00,
2013-01-29 12:08:00,44.4,37.4,30.38,West,280,0.0,0.0,78,0.00,,,0.63,WUHU216WMR968SP,2013-01-29 20:08:00,
2013-01-29 12:13:00,44.6,37.4,30.38,West,279,0.0,0.0,78,0.00,,,0.63,WUHU216WMR968SP,2013-01-29 20:13:00,
2013-01-29 12:18:00,44.6,37.4,30.38,West,280,0.0,0.0,78,0.00,,,0.63,WUHU216WMR968SP,2013-01-29 20:18:00,
2013-01-29 12:23:00,44.6,37.4,30.38,West,280,0.0,0.0,78,0.00,,,0.63,WUHU216WMR968SP,2013-01-29 20:23:00,
2013-01-29 12:28:00,44.6,37.4,30.38,West,280,0.0,0.0,78,0.00,,,0.63,WUHU216WMR968SP,2013-01-29 20:28:00,
2013-01-29 12:33:00,44.6,37.4,30.38,West,262,0.0,2.7,78,0.00,,,0.63,WUHU216WMR968SP,2013-01-29 20:33:00,
2013-01-29 12:38:00,44.8,37.4,30.38,West,262,0.0,2.7,78,0.00,,,0.63,WUHU216WMR968SP,2013-01-29 20:38:00,
2013-01-29 12:43:00,44.8,37.4,30.38,West,263,0.0,0.0,78,0.00,,,0.63,WUHU216WMR968SP,2013-01-29 20:43:00,
2013-01-29 12:48:00,45.0,37.4,30.38,West,263,0.0,0.0,78,0.00,,,0.63,WUHU216WMR968SP,2013-01-29 20:48:00,
2013-01-29 12:53:00,45.1,37.4,30.38,West,263,0.0,0.0,78,0.00,,,0.63,WUHU216WMR968SP,2013-01-29 20:53:00,
2013-01-29 12:58:00,45.1,37.4,30.38,West,262,0.0,0.0,78,0.00,,,0.63,WUHU216WMR968SP,2013-01-29 20:58:00,
2013-01-29 13:03:00,45.3,37.4,30.38,West,263,0.0,0.0,78,0.00,,,0.63,WUHU216WMR968SP,2013-01-29 21:03:00,
2013-01-29 13:08:00,45.3,37.4,30.38,West,263,0.0,0.0,78,0.00,,,0.63,WUHU216WMR968SP,2013-01-29 21:08:00,
2013-01-29 13:13:00,45.1,37.4,30.38,SSE,166,0.0,2.7,78,0.00,,,0.63,WUHU216WMR968SP,2013-01-29 21:13:00,
2013-01-29 13:18:00,45.1,37.4,30.38,SSE,166,0.0,2.7,78,0.00,,,0.63,WUHU216WMR968SP,2013-01-29 21:18:00,
2013-01-29 13:23:00,45.1,37.4,30.38,SSE,166,0.0,0.0,78,0.00,,,0.63,WUHU216WMR968SP,2013-01-29 21:23:00,
2013-01-29 13:28:00,45.1,37.4,30.38,SSE,166,0.0,0.0,78,0.00,,,0.63,WUHU216WMR968SP,2013-01-29 21:28:00,
2013-01-29 13:33:00,45.3,37.4,30.38,SSE,166,0.0,0.0,78,0.00,,,0.63,WUHU216WMR968SP,2013-01-29 21:33:00,
2013-01-29 13:38:00,45.3,37.4,30.38,SSE,166,0.0,0.0,78,0.00,,,0.63,WUHU216WMR968SP,2013-01-29 21:38:00,
2013-01-29 13:43:00,45.7,39.2,30.38,SSE,165,0.0,0.0,78,0.00,,,0.63,WUHU216WMR968SP,2013-01-29 21:43:00,
2013-01-29 13:48:00,45.7,39.2,30.38,SSE,165,0.0,0.0,78,0.00,,,0.63,WUHU216WMR968SP,2013-01-29 21:48:00,
2013-01-29 13:53:00,45.7,39.2,30.38,SSE,166,0.0,0.0,78,0.00,,,0.63,WUHU216WMR968SP,2013-01-29 21:53:00,
2013-01-29 13:58:00,45.9,39.2,30.38,SSE,167,0.0,0.0,78,0.00,,,0.63,WUHU216WMR968SP,2013-01-29 21:58:00,
2013-01-29 14:03:00,45.7,39.2,30.38,SSW,204,0.0,2.7,78,0.00,,,0.63,WUHU216WMR968SP,2013-01-29 22:03:00,
2013-01-29 14:08:00,45.7,39.2,30.38,SSW,204,0.0,3.1,78,0.00,,,0.63,WUHU216WMR968SP,2013-01-29 22:08:00,
2013-01-29 14:13:00,45.9,39.2,30.38,SSE,156,0.0,3.6,78,0.00,,,0.63,WUHU216WMR968SP,2013-01-29 22:13:00,
2013-01-29 14:18:00,45.5,39.2,30.38,SSE,168,2.2,3.6,78,0.00,,,0.63,WUHU216WMR968SP,2013-01-29 22:18:00,
2013-01-29 14:23:00,45.5,39.2,30.38,SW,217,0.0,3.6,75,0.00,,,0.63,WUHU216WMR968SP,2013-01-29 22:23:00,
2013-01-29 14:28:00,45.7,39.2,30.38,SW,217,0.0,3.6,74,0.00,,,0.63,WUHU216WMR968SP,2013-01-29 22:28:00,
2013-01-29 14:33:00,45.7,39.2,30.38,SW,217,2.2,2.7,74,0.00,,,0.63,WUHU216WMR968SP,2013-01-29 22:33:00,
2013-01-29 14:38:00,45.7,39.2,30.38,SW,217,0.0,2.7,74,0.00,,,0.63,WUHU216WMR968SP,2013-01-29 22:38:00,
2013-01-29 14:43:00,45.7,39.2,30.38,SW,218,0.0,2.2,74,0.00,,,0.63,WUHU216WMR968SP,2013-01-29 22:43:00,
2013-01-29 14:48:00,45.7,39.2,30.38,SW,218,0.0,0.0,74,0.00,,,0.63,WUHU216WMR968SP,2013-01-29 22:48:00,
2013-01-29 14:53:00,45.7,39.2,30.38,SW,234,0.0,2.7,74,0.00,,,0.63,WUHU216WMR968SP,2013-01-29 22:53:00,
2013-01-29 14:58:00,45.9,39.2,30.38,SW,234,0.0,2.7,74,0.08,,,0.71,WUHU216WMR968SP,2013-01-29 22:58:00,
2013-01-29 15:03:00,45.9,39.2,30.38,SW,234,0.0,2.2,75,0.08,,,0.71,WUHU216WMR968SP,2013-01-29 23:03:00,
2013-01-29 15:08:00,46.0,39.2,30.38,SW,234,0.0,0.0,75,0.08,,,0.71,WUHU216WMR968SP,2013-01-29 23:08:00,
2013-01-29 15:13:00,46.0,39.2,30.38,SW,234,0.0,0.0,75,0.08,,,0.71,WUHU216WMR968SP,2013-01-29 23:13:00,
2013-01-29 15:18:00,46.2,39.2,30.38,SW,235,0.0,0.0,75,0.08,,,0.71,WUHU216WMR968SP,2013-01-29 23:18:00,
2013-01-29 15:23:00,46.2,39.2,30.38,SW,235,0.0,0.0,75,0.08,,,0.71,WUHU216WMR968SP,2013-01-29 23:23:00,
2013-01-29 15:28:00,46.2,39.2,30.38,SW,234,0.0,0.0,75,0.08,,,0.71,WUHU216WMR968SP,2013-01-29 23:28:00,
2013-01-29 15:33:00,46.2,39.2,30.41,SW,235,0.0,0.0,75,0.08,,,0.71,WUHU216WMR968SP,2013-01-29 23:33:00,
2013-01-29 15:38:00,46.2,39.2,30.41,SW,235,0.0,0.0,75,0.08,,,0.71,WUHU216WMR968SP,2013-01-29 23:38:00,
2013-01-29 15:43:00,46.0,39.2,30.41,SW,234,0.0,0.0,75,0.08,,,0.71,WUHU216WMR968SP,2013-01-29 23:43:00,
2013-01-29 15:48:00,46.0,39.2,30.41,SW,234,0.0,0.0,75,0.08,,,0.71,WUHU216WMR968SP,2013-01-29 23:48:00,
2013-01-29 15:53:00,46.0,39.2,30.41,SW,235,0.0,0.0,75,0.08,,,0.71,WUHU216WMR968SP,2013-01-29 23:53:00,
2013-01-29 15:58:00,46.0,39.2,30.41,SW,234,0.0,0.0,75,0.00,,,0.71,WUHU216WMR968SP,2013-01-29 23:58:00,
2013-01-29 16:03:00,46.0,39.2,30.41,SW,235,0.0,0.0,75,0.00,,,0.71,WUHU216WMR968SP,2013-01-30 00:03:00,
2013-01-29 16:08:00,46.0,39.2,30.41,SW,235,0.0,0.0,75,0.00,,,0.71,WUHU216WMR968SP,2013-01-30 00:08:00,
2013-01-29 16:13:00,46.0,39.2,30.41,SW,235,0.0,0.0,75,0.00,,,0.71,WUHU216WMR968SP,2013-01-30 00:13:00,
2013-01-29 16:18:00,46.0,39.2,30.41,SW,235,0.0,0.0,76,0.00,,,0.71,WUHU216WMR968SP,2013-01-30 00:18:00,
2013-01-29 16:23:00,46.0,39.2,30.41,SW,235,0.0,0.0,76,0.00,,,0.71,WUHU216WMR968SP,2013-01-30 00:23:00,
2013-01-29 16:28:00,46.0,39.2,30.41,SW,234,0.0,0.0,76,0.00,,,0.71,WUHU216WMR968SP,2013-01-30 00:28:00,
2013-01-29 16:33:00,46.0,39.2,30.41,SW,235,0.0,0.0,76,0.00,,,0.71,WUHU216WMR968SP,2013-01-30 00:33:00,
2013-01-29 16:38:00,46.0,39.2,30.41,SW,235,0.0,0.0,76,0.00,,,0.71,WUHU216WMR968SP,2013-01-30 00:38:00,
2013-01-29 16:43:00,45.9,39.2,30.41,SW,235,0.0,0.0,76,0.00,,,0.71,WUHU216WMR968SP,2013-01-30 00:43:00,
2013-01-29 16:48:00,45.7,39.2,30.41,SW,235,0.0,0.0,76,0.00,,,0.71,WUHU216WMR968SP,2013-01-30 00:48:00,
2013-01-29 16:53:00,45.5,39.2,30.41,SW,235,0.0,0.0,76,0.00,,,0.71,WUHU216WMR968SP,2013-01-30 00:53:00,
2013-01-29 16:58:00,45.5,39.2,30.41,SW,234,0.0,0.0,76,0.00,,,0.71,WUHU216WMR968SP,2013-01-30 00:58:00,
2013-01-29 17:03:00,45.5,39.2,30.41,SW,235,0.0,0.0,76,0.00,,,0.71,WUHU216WMR968SP,2013-01-30 01:03:00,
2013-01-29 17:08:00,45.3,37.4,30.41,SW,235,0.0,0.0,76,0.00,,,0.71,WUHU216WMR968SP,2013-01-30 01:08:00,
2013-01-29 17:13:00,45.3,37.4,30.41,SW,234,0.0,0.0,76,0.00,,,0.71,WUHU216WMR968SP,2013-01-30 01:13:00,
2013-01-29 17:18:00,45.3,37.4,30.41,SW,235,0.0,0.0,76,0.00,,,0.71,WUHU216WMR968SP,2013-01-30 01:18:00,
2013-01-29 17:23:00,45.1,37.4,30.41,SW,235,0.0,0.0,76,0.00,,,0.71,WUHU216WMR968SP,2013-01-30 01:23:00,
2013-01-29 17:28:00,45.1,37.4,30.41,SW,235,0.0,0.0,76,0.00,,,0.71,WUHU216WMR968SP,2013-01-30 01:28:00,
2013-01-29 17:33:00,45.0,37.4,30.41,SW,235,0.0,0.0,76,0.00,,,0.71,WUHU216WMR968SP,2013-01-30 01:33:00,
2013-01-29 17:38:00,45.0,37.4,30.41,SW,235,0.0,0.0,76,0.00,,,0.71,WUHU216WMR968SP,2013-01-30 01:38:00,
2013-01-29 17:43:00,45.1,37.4,30.41,SW,235,0.0,0.0,76,0.00,,,0.71,WUHU216WMR968SP,2013-01-30 01:43:00,
2013-01-29 17:48:00,44.8,37.4,30.41,SW,235,0.0,0.0,76,0.00,,,0.71,WUHU216WMR968SP,2013-01-30 01:48:00,
2013-01-29 17:53:00,44.6,37.4,30.41,SW,235,0.0,0.0,76,0.00,,,0.71,WUHU216WMR968SP,2013-01-30 01:53:00,
2013-01-29 17:58:00,44.8,37.4,30.41,SW,235,0.0,0.0,76,0.00,,,0.71,WUHU216WMR968SP,2013-01-30 01:58:00,
2013-01-29 18:03:00,44.6,37.4,30.44,SW,235,0.0,0.0,76,0.00,,,0.71,WUHU216WMR968SP,2013-01-30 02:03:00,
2013-01-29 18:08:00,44.6,37.4,30.44,SW,235,0.0,0.0,76,0.00,,,0.71,WUHU216WMR968SP,2013-01-30 02:08:00,
2013-01-29 18:13:00,44.6,37.4,30.44,SW,235,0.0,0.0,77,0.00,,,0.71,WUHU216WMR968SP,2013-01-30 02:13:00,
2013-01-29 18:18:00,44.6,37.4,30.44,SW,235,0.0,0.0,77,0.00,,,0.71,WUHU216WMR968SP,2013-01-30 02:18:00,
2013-01-29 18:23:00,44.6,37.4,30.44,SW,235,0.0,0.0,77,0.00,,,0.71,WUHU216WMR968SP,2013-01-30 02:23:00,
2013-01-29 18:28:00,44.6,37.4,30.44,SW,235,0.0,0.0,77,0.00,,,0.71,WUHU216WMR968SP,2013-01-30 02:28:00,
2013-01-29 18:33:00,44.6,37.4,30.41,SW,235,0.0,0.0,77,0.00,,,0.71,WUHU216WMR968SP,2013-01-30 02:33:00,
2013-01-29 18:38:00,44.6,37.4,30.41,SW,235,0.0,0.0,77,0.00,,,0.71,WUHU216WMR968SP,2013-01-30 02:38:00,
2013-01-29 18:43:00,44.2,37.4,30.41,SW,235,0.0,0.0,77,0.00,,,0.71,WUHU216WMR968SP,2013-01-30 02:43:00,
2013-01-29 18:48:00,44.2,37.4,30.44,SW,235,0.0,0.0,77,0.00,,,0.71,WUHU216WMR968SP,2013-01-30 02:48:00,
2013-01-29 18:53:00,44.2,37.4,30.44,SW,235,0.0,0.0,77,0.00,,,0.71,WUHU216WMR968SP,2013-01-30 02:53:00,
2013-01-29 18:58:00,44.2,37.4,30.44,SW,235,0.0,0.0,77,0.00,,,0.71,WUHU216WMR968SP,2013-01-30 02:58:00,
2013-01-29 19:03:00,44.2,37.4,30.44,SW,235,0.0,0.0,77,0.00,,,0.71,WUHU216WMR968SP,2013-01-30 03:03:00,
2013-01-29 19:08:00,44.2,37.4,30.44,SW,235,0.0,0.0,77,0.00,,,0.71,WUHU216WMR968SP,2013-01-30 03:08:00,
2013-01-29 19:13:00,44.2,37.4,30.44,SW,235,0.0,0.0,77,0.00,,,0.71,WUHU216WMR968SP,2013-01-30 03:13:00,
2013-01-29 19:18:00,44.1,37.4,30.44,SW,235,0.0,0.0,77,0.00,,,0.71,WUHU216WMR968SP,2013-01-30 03:18:00,
2013-01-29 19:23:00,44.1,37.4,30.44,SW,235,0.0,0.0,77,0.00,,,0.71,WUHU216WMR968SP,2013-01-30 03:23:00,
2013-01-29 19:28:00,44.1,37.4,30.44,SW,235,0.0,0.0,77,0.00,,,0.71,WUHU216WMR968SP,2013-01-30 03:28:00,
2013-01-29 19:33:00,44.1,37.4,30.44,SW,235,0.0,0.0,77,0.00,,,0.71,WUHU216WMR968SP,2013-01-30 03:33:00,
2013-01-29 19:38:00,44.1,37.4,30.44,SW,235,0.0,0.0,77,0.00,,,0.71,WUHU216WMR968SP,2013-01-30 03:38:00,
2013-01-29 19:43:00,43.9,37.4,30.44,SW,235,0.0,0.0,77,0.00,,,0.71,WUHU216WMR968SP,2013-01-30 03:43:00,
2013-01-29 19:48:00,43.9,37.4,30.44,SW,235,0.0,0.0,77,0.00,,,0.71,WUHU216WMR968SP,2013-01-30 03:48:00,
2013-01-29 19:53:00,43.9,37.4,30.44,SW,235,0.0,0.0,78,0.00,,,0.71,WUHU216WMR968SP,2013-01-30 03:53:00,
2013-01-29 19:58:00,43.7,37.4,30.44,SW,235,0.0,0.0,78,0.00,,,0.71,WUHU216WMR968SP,2013-01-30 03:58:00,
2013-01-29 20:03:00,43.7,37.4,30.44,SW,235,0.0,0.0,78,0.00,,,0.71,WUHU216WMR968SP,2013-01-30 04:03:00,
2013-01-29 20:08:00,43.7,37.4,30.44,SW,235,0.0,0.0,78,0.00,,,0.71,WUHU216WMR968SP,2013-01-30 04:08:00,
2013-01-29 20:13:00,43.7,37.4,30.44,SW,235,0.0,0.0,78,0.00,,,0.71,WUHU216WMR968SP,2013-01-30 04:13:00,
2013-01-29 20:18:00,43.5,35.6,30.44,SW,235,0.0,0.0,78,0.00,,,0.71,WUHU216WMR968SP,2013-01-30 04:18:00,
2013-01-29 20:23:00,43.5,35.6,30.44,SW,235,0.0,0.0,78,0.04,,,0.75,WUHU216WMR968SP,2013-01-30 04:23:00,
2013-01-29 20:28:00,43.5,35.6,30.44,SW,235,0.0,0.0,78,0.04,,,0.75,WUHU216WMR968SP,2013-01-30 04:28:00,
2013-01-29 20:33:00,43.3,35.6,30.44,SW,235,0.0,0.0,78,0.04,,,0.75,WUHU216WMR968SP,2013-01-30 04:33:00,
2013-01-29 20:38:00,43.3,35.6,30.44,SW,235,0.0,0.0,78,0.04,,,0.75,WUHU216WMR968SP,2013-01-30 04:38:00,
2013-01-29 20:43:00,43.3,35.6,30.44,SW,235,0.0,0.0,78,0.04,,,0.75,WUHU216WMR968SP,2013-01-30 04:43:00,
2013-01-29 20:48:00,43.3,35.6,30.44,SW,235,0.0,0.0,78,0.04,,,0.75,WUHU216WMR968SP,2013-01-30 04:48:00,
2013-01-29 20:53:00,43.3,35.6,30.44,SW,235,0.0,0.0,78,0.04,,,0.75,WUHU216WMR968SP,2013-01-30 04:53:00,
2013-01-29 20:58:00,43.2,35.6,30.44,SW,235,0.0,0.0,78,0.04,,,0.75,WUHU216WMR968SP,2013-01-30 04:58:00,
2013-01-29 21:01:00,43.2,35.6,30.44,SW,235,0.0,0.0,78,0.04,,,0.75,WUHU216WMR968SP,2013-01-30 05:01:00,
2013-01-29 21:03:00,43.2,35.6,30.44,SW,235,0.0,0.0,78,0.04,,,0.75,WUHU216WMR968SP,2013-01-30 05:03:00,
2013-01-29 21:08:00,43.2,35.6,30.44,SW,235,0.0,0.0,78,0.04,,,0.75,WUHU216WMR968SP,2013-01-30 05:08:00,
2013-01-29 21:13:00,43.2,35.6,30.44,SW,235,0.0,0.0,78,0.04,,,0.75,WUHU216WMR968SP,2013-01-30 05:13:00,
2013-01-29 21:18:00,43.0,35.6,30.44,SW,235,0.0,0.0,78,0.04,,,0.75,WUHU216WMR968SP,2013-01-30 05:18:00,
2013-01-29 21:23:00,42.8,35.6,30.44,SW,235,0.0,0.0,78,0.00,,,0.75,WUHU216WMR968SP,2013-01-30 05:23:00,
2013-01-29 21:28:00,42.8,35.6,30.44,SW,235,0.0,0.0,78,0.00,,,0.75,WUHU216WMR968SP,2013-01-30 05:28:00,
2013-01-29 21:33:00,43.0,35.6,30.44,SW,235,0.0,0.0,78,0.00,,,0.75,WUHU216WMR968SP,2013-01-30 05:33:00,
2013-01-29 21:38:00,43.0,35.6,30.44,SW,235,0.0,0.0,78,0.00,,,0.75,WUHU216WMR968SP,2013-01-30 05:38:00,
2013-01-29 21:43:00,43.0,35.6,30.44,SW,235,0.0,0.0,78,0.00,,,0.75,WUHU216WMR968SP,2013-01-30 05:43:00,
2013-01-29 21:48:00,43.0,35.6,30.44,SW,235,0.0,0.0,78,0.00,,,0.75,WUHU216WMR968SP,2013-01-30 05:48:00,
2013-01-29 21:53:00,43.0,35.6,30.44,SW,235,0.0,0.0,78,0.00,,,0.75,WUHU216WMR968SP,2013-01-30 05:53:00,
2013-01-29 21:58:00,42.8,35.6,30.44,SW,235,0.0,0.0,78,0.00,,,0.75,WUHU216WMR968SP,2013-01-30 05:58:00,
2013-01-29 22:03:00,42.8,35.6,30.41,SW,235,0.0,0.0,78,0.00,,,0.75,WUHU216WMR968SP,2013-01-30 06:03:00,
2013-01-29 22:08:00,42.8,35.6,30.41,SW,235,0.0,0.0,78,0.00,,,0.75,WUHU216WMR968SP,2013-01-30 06:08:00,
2013-01-29 22:13:00,42.6,35.6,30.41,SW,234,0.0,0.0,78,0.00,,,0.75,WUHU216WMR968SP,2013-01-30 06:13:00,
2013-01-29 22:18:00,42.8,35.6,30.44,SW,235,0.0,0.0,78,0.00,,,0.75,WUHU216WMR968SP,2013-01-30 06:18:00,
2013-01-29 22:23:00,42.8,35.6,30.44,SW,235,0.0,0.0,78,0.00,,,0.75,WUHU216WMR968SP,2013-01-30 06:23:00,
2013-01-29 22:28:00,42.8,35.6,30.44,SW,234,0.0,0.0,78,0.00,,,0.75,WUHU216WMR968SP,2013-01-30 06:28:00,
2013-01-29 22:33:00,42.8,35.6,30.44,SW,235,0.0,0.0,78,0.00,,,0.75,WUHU216WMR968SP,2013-01-30 06:33:00,
2013-01-29 22:38:00,42.8,35.6,30.44,SW,235,0.0,0.0,78,0.00,,,0.75,WUHU216WMR968SP,2013-01-30 06:38:00,
2013-01-29 22:43:00,42.8,35.6,30.44,SW,235,0.0,0.0,78,0.00,,,0.75,WUHU216WMR968SP,2013-01-30 06:43:00,
2013-01-29 22:48:00,42.8,35.6,30.44,SW,235,0.0,0.0,78,0.00,,,0.75,WUHU216WMR968SP,2013-01-30 06:48:00,
2013-01-29 22:53:00,42.8,35.6,30.44,SW,235,0.0,0.0,78,0.00,,,0.75,WUHU216WMR968SP,2013-01-30 06:53:00,
2013-01-29 22:58:00,42.8,35.6,30.44,SW,235,0.0,0.0,78,0.00,,,0.75,WUHU216WMR968SP,2013-01-30 06:58:00,
2013-01-29 23:03:00,42.6,37.4,30.44,SW,235,0.0,3.1,79,0.00,,,0.75,WUHU216WMR968SP,2013-01-30 07:03:00,
2013-01-29 23:08:00,42.6,37.4,30.44,SW,235,0.0,3.1,79,0.00,,,0.75,WUHU216WMR968SP,2013-01-30 07:08:00,
2013-01-29 23:13:00,42.4,35.6,30.44,SW,235,0.0,0.0,78,0.00,,,0.75,WUHU216WMR968SP,2013-01-30 07:13:00,
2013-01-29 23:18:00,42.4,35.6,30.44,SW,235,0.0,0.0,78,0.00,,,0.75,WUHU216WMR968SP,2013-01-30 07:18:00,
2013-01-29 23:23:00,42.3,35.6,30.44,SW,235,0.0,0.0,78,0.00,,,0.75,WUHU216WMR968SP,2013-01-30 07:23:00,
2013-01-29 23:28:00,42.3,35.6,30.44,SW,235,0.0,0.0,78,0.00,,,0.75,WUHU216WMR968SP,2013-01-30 07:28:00,
2013-01-29 23:33:00,42.1,35.6,30.44,SW,235,0.0,0.0,78,0.00,,,0.75,WUHU216WMR968SP,2013-01-30 07:33:00,
2013-01-29 23:38:00,42.1,35.6,30.44,SW,235,0.0,0.0,78,0.00,,,0.75,WUHU216WMR968SP,2013-01-30 07:38:00,
2013-01-29 23:43:00,41.9,35.6,30.44,SW,235,0.0,0.0,78,0.00,,,0.75,WUHU216WMR968SP,2013-01-30 07:43:00,
2013-01-29 23:48:00,41.7,33.8,30.44,SW,234,0.0,0.0,78,0.00,,,0.75,WUHU216WMR968SP,2013-01-30 07:48:00,
2013-01-29 23:53:00,41.5,33.8,30.44,SW,235,0.0,0.0,78,0.00,,,0.75,WUHU216WMR968SP,2013-01-30 07:53:00,
2013-01-29 23:58:00,41.4,33.8,30.44,SW,235,0.0,0.0,78,0.00,,,0.75,WUHU216WMR968SP,2013-01-30 07:58:00,